Index of /blog/wp-content/uploads/2012/01

 NameLast modifiedSizeDescription

 Parent Directory   -  
 tweet.jpg 2014-01-11 07:25 92K 
 tweet-325x198.jpg 2014-01-11 07:25 20K 
 tweet-300x252.jpg 2014-01-11 07:25 20K 
 tweet-195x80.jpg 2014-01-11 07:25 6.6K 
 tweet-150x150.jpg 2014-01-11 07:25 8.9K 
 thumb.jpg 2014-01-11 07:25 36K 
 thumb-195x80.jpg 2014-01-11 07:25 5.7K 
 thumb-150x97.jpg 2014-01-11 07:25 6.6K 
 small_img12.png 2014-01-11 07:25 33K 
 small_img12-150x80.png 2014-01-11 07:25 28K 
 small_img11.png 2014-01-11 07:25 33K 
 small_img11-150x80.png 2014-01-11 07:25 28K 
 small_img1.png 2014-01-11 07:25 33K 
 small_img1-150x80.png 2014-01-11 07:25 28K 
 messng.jpg 2014-01-11 07:25 54K 
 messng-327x198.jpg 2014-01-11 07:25 12K 
 messng-300x224.jpg 2014-01-11 07:25 12K 
 messng-195x80.jpg 2014-01-11 07:25 4.7K 
 messng-150x150.jpg 2014-01-11 07:25 6.2K 
 left_small_img2.png 2014-01-11 07:25 116K 
 left_small_img2-300x..>2014-01-11 07:25 115K 
 left_small_img2-195x..>2014-01-11 07:25 38K 
 left_small_img2-150x..>2014-01-11 07:25 50K 
 left_small_img1.png 2014-01-11 07:25 116K 
 left_small_img1-300x..>2014-01-11 07:25 115K 
 left_small_img1-195x..>2014-01-11 07:25 38K 
 left_small_img1-150x..>2014-01-11 07:25 50K 
 left_small_img.png 2014-01-11 07:25 116K 
 left_small_img-300x1..>2014-01-11 07:25 115K 
 left_small_img-150x1..>2014-01-11 07:25 50K 
 left_big_img2.png 2014-01-11 07:25 286K 
 left_big_img2-517x19..>2014-01-11 07:25 142K 
 left_big_img2-300x29..>2014-01-11 07:25 116K 
 left_big_img2-195x80..>2014-01-11 07:25 23K 
 left_big_img2-150x15..>2014-01-11 07:25 32K 
 left_big_img1.png 2014-01-11 07:25 286K 
 left_big_img1-517x19..>2014-01-11 07:25 142K 
 left_big_img1-300x29..>2014-01-11 07:25 116K 
 left_big_img1-150x15..>2014-01-11 07:25 32K 
 left_big_img0.png 2014-01-11 07:25 286K 
 left_big_img0-532x19..>2014-01-11 07:25 144K 
 left_big_img0-300x29..>2014-01-11 07:25 110K 
 left_big_img0-195x80..>2014-01-11 07:25 23K 
 left_big_img0-150x15..>2014-01-11 07:25 31K 
 left_big_img.png 2014-01-11 07:25 286K 
 left_big_img-517x198..>2014-01-11 07:25 142K 
 left_big_img-300x293..>2014-01-11 07:25 116K 
 left_big_img-150x150..>2014-01-11 07:25 32K 
 kineticlogo-HIGHRES-..>2014-01-11 07:25 970K 
 kineticlogo-HIGHRES-..>2014-01-11 07:25 66K 
 kineticlogo-HIGHRES-..>2014-01-11 07:25 29K 
 kineticlogo-HIGHRES-..>2014-01-11 07:25 14K 
 kineticlogo-HIGHRES-..>2014-01-11 07:25 8.6K 
 kineticlogo-HIGHRES-..>2014-01-11 07:25 9.0K 
 iphone.jpg 2014-01-11 07:25 63K 
 iphone-325x198.jpg 2014-01-11 07:25 17K 
 iphone-300x225.jpg 2014-01-11 07:25 16K 
 iphone-195x80.jpg 2014-01-11 07:25 6.4K 
 iphone-150x150.jpg 2014-01-11 07:25 7.9K 
 iPhone-4S-logo-with-..>2014-01-11 07:25 50K 
 iPhone-4S-logo-with-..>2014-01-11 07:25 28K 
 iPhone-4S-logo-with-..>2014-01-11 07:25 14K 
 iPhone-4S-logo-with-..>2014-01-11 07:25 6.0K 
 iPhone-4S-logo-with-..>2014-01-11 07:25 7.6K 
 g+.jpg 2014-01-11 07:25 140K 
 g+-328x198.jpg 2014-01-11 07:25 20K 
 g+-242x300.jpg 2014-01-11 07:25 23K 
 g+-195x80.jpg 2014-01-11 07:25 5.8K 
 g+-150x150.jpg 2014-01-11 07:25 10K 
 facebook-messenger-w..>2014-01-11 07:25 16K 
 facebook-messenger-w..>2014-01-11 07:25 11K 
 facebook-messenger-w..>2014-01-11 07:25 7.4K 
 facebook-messenger-w..>2014-01-11 07:25 6.6K 
 adsense-toolbar-for-..>2014-01-11 07:25 68K 
 adsense-toolbar-for-..>2014-01-11 07:25 17K 
 adsense-toolbar-for-..>2014-01-11 07:25 17K 
 adsense-toolbar-for-..>2014-01-11 07:25 4.7K 
 adsense-toolbar-for-..>2014-01-11 07:25 8.1K 
 Untitled-71.jpg 2014-01-11 07:25 63K 
 Untitled-71-325x198.jpg2014-01-11 07:25 16K 
 Untitled-71-300x187.jpg2014-01-11 07:25 14K 
 Untitled-71-195x80.jpg 2014-01-11 07:25 6.7K 
 Untitled-71-150x150.jpg2014-01-11 07:25 7.2K 
 Untitled-7.jpg 2014-01-11 07:25 63K 
 Untitled-7-325x198.jpg 2014-01-11 07:25 16K 
 Untitled-7-300x187.jpg 2014-01-11 07:25 14K 
 Untitled-7-195x80.jpg 2014-01-11 07:25 6.7K 
 Untitled-7-150x150.jpg 2014-01-11 07:25 7.2K 
 Untitled-3.jpg 2014-01-11 07:25 160K 
 Untitled-3-325x198.jpg 2014-01-11 07:25 21K 
 Untitled-3-201x300.jpg 2014-01-11 07:25 21K 
 Untitled-3-195x80.jpg 2014-01-11 07:25 6.3K 
 Untitled-3-150x150.jpg 2014-01-11 07:25 9.4K 
 Untitled-2.jpg 2014-01-11 07:25 73K 
 Untitled-2-324x198.jpg 2014-01-11 07:25 22K 
 Untitled-2-300x187.jpg 2014-01-11 07:25 18K 
 Untitled-2-195x80.jpg 2014-01-11 07:25 7.1K 
 Untitled-2-150x150.jpg 2014-01-11 07:25 9.1K 
 Samsung-Galaxy-Note-..>2014-01-11 07:25 93K 
 Samsung-Galaxy-Note-..>2014-01-11 07:25 28K 
 Samsung-Galaxy-Note-..>2014-01-11 07:25 16K 
 Samsung-Galaxy-Note-..>2014-01-11 07:25 6.8K 
 Samsung-Galaxy-Note-..>2014-01-11 07:25 8.8K 
 Samsung-Galaxy-Note-..>2014-01-11 07:25 35K 
 Samsung-Galaxy-Note-..>2014-01-11 07:25 6.4K 
 Samsung-Galaxy-Note-..>2014-01-11 07:25 6.8K 
 Bugtreat-logo.png 2014-01-11 07:25 9.7K 
 Bugtreat-logo-300x85..>2014-01-11 07:25 14K 
 Bugtreat-logo-195x80..>2014-01-11 07:25 7.3K 
 Bugtreat-logo-150x11..>2014-01-11 07:25 1.6K 
 5.jpg 2014-01-11 07:25 30K 
 5-195x80.jpg 2014-01-11 07:25 5.2K 
 5-150x97.jpg 2014-01-11 07:25 5.3K 
 4.jpg 2014-01-11 07:25 30K 
 4-195x80.jpg 2014-01-11 07:25 5.3K 
 4-150x97.jpg 2014-01-11 07:25 4.9K 
 3.jpg 2014-01-11 07:25 28K 
 3-195x80.jpg 2014-01-11 07:25 4.9K 
 3-150x97.jpg 2014-01-11 07:25 5.7K 
 1.jpg 2014-01-11 07:25 37K 
 1-195x80.jpg 2014-01-11 07:25 6.7K 
 1-150x97.jpg 2014-01-11 07:25 6.8K